Regional Weather Roundup
Issued by NWS

Home | Current Version | Previous Version | Text Only | Print | Product List | Glossary Off
Versions: 1 2 3 4 5 6 7 8 9 10 11 12 13 14 15 16 17 18 19 20 21 22 23 24 25 26 27

000
ASUS45 KTFX 220010
RWRMT
MONTANA REGIONAL WEATHER ROUNDUP
NATIONAL WEATHER SERVICE GREAT FALLS MT
500 PM MST WED FEB 21 2018

NOTE: "FAIR" INDICATES FEW OR NO CLOUDS BELOW 12000 FEET WITH NO
SIGNIFICANT WEATHER AND/OR OBSTRUCTIONS TO VISIBILITY.

MTZ001>007-043-220100-
WEST OF THE DIVIDE

CITY           SKY/WX    TMP DP  RH WIND       PRES   REMARKS
KALISPELL      FAIR      15   7  70 SW3       30.11F
MISSOULA       PTSUNNY   19   4  51 CALM      30.10F
BUTTE          MOCLDY    19   1  45 W7        29.94F WCI  10
MULLAN PASS    PTSUNNY    8   4  83 CALM      29.89F
ANACONDA         N/A     12   0  57 N6        29.98F WCI   3
DEER LODGE       N/A     18   0  45 CALM      30.02F
HAMILTON         N/A     21   9  58 MISG      30.06F
RONAN            N/A      9   3  78 CALM      30.14S
$$

MTZ008-052>055-220100-
SOUTHWEST MONTANA

CITY           SKY/WX    TMP DP  RH WIND       PRES   REMARKS
BOZEMAN        FAIR      11   1  64 CALM      30.01F
DILLON         CLOUDY    13   7  77 S5        29.96F
ENNIS          MOCLDY    19   5  53 S17G24    30.00S WCI   4
W YELLOWSTONE  LGT SNOW  12   7  79 SW9       29.94S WCI   0
THREE FORKS      N/A     16   3  56 CALM      30.01S
$$

MTZ009-010-012-014-046-048-049-054-220100-
EAST SLOPES AND CENTRAL MONTANA

CITY           SKY/WX    TMP DP  RH WIND       PRES   REMARKS
CUT BANK       FAIR      13   3  64 W25       29.90F WCI  -7
GREAT FALLS    FAIR      13   2  61 SW13      29.97F WCI  -2
MALMSTROM AFB  CLEAR     18   6  59 SW16G25   29.99F WCI   3
HELENA         FAIR      11   0  61 CALM      30.03S
AUGUSTA        FAIR      13  -3  47 SW9       29.91S WCI   1
BOWMANS CRNR   FAIR      12   1  62 SW20      29.92F WCI  -6
CHOTEAU          N/A     16  -2  45 SW5       29.95S
FAIRFIELD      FAIR      14   1  56 S12       29.94S WCI   0
POWER          FAIR       9   1  70 SW14      29.95S WCI  -8
RAYNESFORD     FAIR      19   1  44 W14       29.97R WCI   6
ULM            FAIR      16   5  61 W13       29.98F WCI   2
WHITE SULPHUR    N/A     12   1  62 S12       29.93S WCI  -2
$$

MTZ011-013-016-021-045-047-050-051-220100-
NORTH CENTRAL MONTANA

CITY           SKY/WX    TMP DP  RH WIND       PRES   REMARKS
HAVRE          FAIR      -5 -12  72 E7        30.08F WCI -19
LEWISTOWN      FAIR      12   2  64 SW15      29.97S WCI  -4
N BAR RANCH    FAIR      18   0  45 SW9G16    29.97F WCI   6
CHINOOK          N/A     -6 -13  71 E6        30.12F WCI -18
STANFORD       FAIR       9   1  67 CALM      29.95S
$$

MTZ017>020-022>027-061-062-220100-
NORTHEAST MONTANA

CITY           SKY/WX    TMP DP  RH WIND       PRES   REMARKS
GLASGOW        FAIR      -2  -9  72 E12       30.17S WCI -20
GLENDIVE       FAIR       8  -2  63 SW7       30.21F WCI  -3
JORDAN           N/A      5  -3  69 SE8       30.14S WCI  -8
MALTA          CLEAR     -8 -13  77 CALM      30.15S
SIDNEY         FAIR      14  -2  49 CALM      30.25F
WOLF POINT     FAIR       4  -6  63 E3        30.23F
PLENTYWOOD       N/A      7  -2  66 S10       30.20F WCI  -8
POPLAR           N/A      9  -2  61 CALM      30.23F
$$

MTZ028>42-056>058-220100-
SOUTHCENTRAL AND SOUTHEAST MONTANA

CITY           SKY/WX    TMP DP  RH WIND       PRES   REMARKS
BAKER          FAIR       3  -4  72 SE15      30.20R WCI -16
BILLINGS       FAIR      17   2  51 SW16      30.06F WCI   2
LIVINGSTON     FAIR      22  13  68 W14       29.97S WCI   9
MILES CITY     MIX PCPN  -3 -11  68 NE6       30.18F WCI -15
BIG TIMBER     CLEAR     12   1  62 SE6       30.01F WCI   3
FORSYTH          N/A     -2  -9  71 CALM      30.15F
HARLOWTON      FAIR      10   1  66 SE7       29.99F WCI  -1
LAUREL           N/A     16   0  48 SW18G25   30.08S WCI  -1
$$

REGIONAL REPORTS...DAKOTAS

CITY           SKY/WX    TMP DP  RH WIND       PRES   REMARKS
WILLISTON      FAIR      10   1  67 E7        30.26F WCI  -1
MINOT          FAIR      10   1  67 SE6       30.34F WCI   0
DICKINSON      FAIR       9  -4  55 S13       30.23F WCI  -7
BEACH          FAIR       7  -2  66 S14       30.24F WCI -10
CROSBY         MOCLDY     9   0  66 S12       30.26F WCI  -6
TIOGA          CLOUDY     9   3  78 SE14      30.26F WCI  -8
WATFORD CITY   FAIR      10   0  61 SE9       30.26F WCI  -2
BISMARCK       FAIR      10   0  63 SE8       30.40F WCI  -2
GRAND FORKS    FAIR       6  -1  73 S7        30.52S WCI  -6
FARGO          FAIR      12   2  64 S9        30.53F WCI   0
BUFFALO SD       N/A      2  -7  66 SE8       30.15F WCI -12
RAPID CITY     FAIR      12   2  64 S8        30.20S WCI   0
$$

REGIONAL REPORTS...WYOMING/IDAHO/WASHINGTON

CITY           SKY/WX    TMP DP  RH WIND       PRES   REMARKS
GILLETTE       FAIR      13   3  64 S9        30.08F WCI   1
SHERIDAN       FAIR       5  -4  66 S3        30.08S
BUFFALO WY     FAIR      14   1  56 S5        30.02S
CODY           FAIR      14   1  56 S9        30.02F WCI   2
YELLOWSTONE LA   N/A      9   0  67 VRB5      29.93S
IDAHO FALLS    FAIR      28   6  39 SW14      30.06F WCI  17
SALMON         CLOUDY    24  12  60 CALM      30.05S
BOISE          CLOUDY    35  11  36 W3        30.10F
SPOKANE        CLOUDY    22  10  60 SE8       30.14F WCI  12
$$

REGIONAL REPORTS...ALBERTA

CITY           SKY/WX    TMP DP  RH WIND       PRES   REMARKS
$$

REGIONAL REPORTS...SASKATCHEWAN

CITY           SKY/WX    TMP DP  RH WIND       PRES   REMARKS
$$




USA.gov is the U.S. government's official web portal to all federal, state and local government web resources and services.